When you browse on this site, cookies collect data to enhance your experience and personalize the content and advertising you see.
Visit our Privacy Policy to learn more. By continuing to use the site, you agree to this use of cookies and data.
  • En España
  • Lista de países
  • Para 7 días
  • Temperatura del agua
  • El tiempo en el mapa
  • Informadores
  • user-avatar
    Iniciar sesión

    Tiempo cada hora Perugia

    Hoy, 6 Junio, Sábado

    Tiempo Temperatura Precipitaciones Viento Presión Humedad
    00:00 +13°C° 0 mm 0 mps 721 mmHg 92%
    01:00 +12°C° 0 mm 0 mps 721 mmHg 92%
    02:00 +12°C° 0 mm 0 mps 721 mmHg 92%
    03:00 +12°C° 0 mm 0 mps 721 mmHg 92%
    04:00 +12°C° 0 mm 0 mps 721 mmHg 92%
    05:00 +13°C° 0 mm 0 mps 722 mmHg 90%
    06:00 +14°C° 0 mm 0 mps 722 mmHg 88%
    07:00 +16°C° 0 mm 0 mps 723 mmHg 85%
    08:00 +19°C° 0 mm 1 mps 723 mmHg 77%
    09:00 +21°C° 0 mm 1 mps 723 mmHg 70%
    10:00 +23°C° 0 mm 2 mps 723 mmHg 63%
    11:00 +24°C° 0 mm 2 mps 724 mmHg 59%
    12:00 +25°C° 0 mm 2 mps 724 mmHg 55%
    13:00 +26°C° 0 mm 2 mps 724 mmHg 49%
    14:00 +26°C° 0 mm 3 mps 724 mmHg 51%
    15:00 +26°C° 0 mm 3 mps 724 mmHg 54%
    16:00 +25°C° 0 mm 4 mps 724 mmHg 56%
    17:00 +24°C° 0 mm 3 mps 724 mmHg 63%
    18:00 +21°C° 0 mm 3 mps 723 mmHg 71%
    19:00 +20°C° 0 mm 2 mps 723 mmHg 78%
    20:00 +18°C° 0 mm 2 mps 723 mmHg 82%
    21:00 +16°C° 0 mm 1 mps 723 mmHg 86%
    22:00 +15°C° 0 mm 1 mps 723 mmHg 90%
    23:00 +14°C° 0 mm 1 mps 723 mmHg 90%

    Mañana, 7 Junio, Domingo

    Tiempo Temperatura Precipitaciones Viento Presión Humedad
    00:00 +14°C° 0 mm 1 mps 723 mmHg 91%
    01:00 +13°C° 0 mm 1 mps 723 mmHg 91%
    02:00 +13°C° 0 mm 1 mps 723 mmHg 91%
    03:00 +13°C° 0 mm 1 mps 723 mmHg 92%
    04:00 +12°C° 0 mm 0 mps 723 mmHg 92%
    05:00 +14°C° 0 mm 1 mps 723 mmHg 87%
    06:00 +16°C° 0 mm 1 mps 723 mmHg 83%
    07:00 +18°C° 0 mm 1 mps 724 mmHg 79%
    08:00 +19°C° 0 mm 2 mps 724 mmHg 75%
    09:00 +20°C° 0 mm 4 mps 724 mmHg 71%
    10:00 +22°C° 0 mm 5 mps 725 mmHg 67%
    11:00 +23°C° 0.1 mm 5 mps 725 mmHg 64%
    12:00 +23°C° 0.1 mm 6 mps 725 mmHg 62%
    13:00 +24°C° 0.1 mm 6 mps 725 mmHg 59%
    14:00 +24°C° 0.1 mm 6 mps 724 mmHg 58%
    15:00 +24°C° 0.1 mm 6 mps 724 mmHg 57%
    16:00 +24°C° 0.1 mm 6 mps 724 mmHg 56%
    17:00 +23°C° 0 mm 5 mps 723 mmHg 62%
    18:00 +21°C° 0 mm 4 mps 723 mmHg 68%
    19:00 +20°C° 0 mm 3 mps 723 mmHg 74%
    20:00 +19°C° 0.3 mm 3 mps 723 mmHg 79%
    21:00 +17°C° 0.3 mm 2 mps 723 mmHg 85%
    22:00 +16°C° 0.3 mm 2 mps 723 mmHg 90%
    23:00 +16°C° 0.3 mm 2 mps 723 mmHg 92%

    Pasado mañana, 8 Junio, Lunes

    Tiempo Temperatura Precipitaciones Viento Presión Humedad
    00:00 +16°C° 0.3 mm 2 mps 723 mmHg 93%
    01:00 +16°C° 0.3 mm 2 mps 723 mmHg 94%
    02:00 +16°C° 0.7 mm 2 mps 723 mmHg 95%
    03:00 +16°C° 0.7 mm 1 mps 723 mmHg 95%
    04:00 +16°C° 0.7 mm 1 mps 723 mmHg 96%
    05:00 +16°C° 0.3 mm 1 mps 723 mmHg 95%
    06:00 +17°C° 0.3 mm 2 mps 723 mmHg 93%
    07:00 +17°C° 0.3 mm 2 mps 723 mmHg 92%
    08:00 +18°C° 0.5 mm 2 mps 723 mmHg 88%
    09:00 +19°C° 0.5 mm 2 mps 724 mmHg 84%
    10:00 +20°C° 0.5 mm 3 mps 724 mmHg 80%
    11:00 +21°C° 1.9 mm 3 mps 724 mmHg 79%
    12:00 +21°C° 1.9 mm 3 mps 723 mmHg 78%
    13:00 +22°C° 1.9 mm 4 mps 723 mmHg 77%
    14:00 +22°C° 2.1 mm 4 mps 723 mmHg 78%
    15:00 +22°C° 2.1 mm 3 mps 723 mmHg 78%
    16:00 +21°C° 2.1 mm 3 mps 723 mmHg 79%
    17:00 +21°C° 1.3 mm 3 mps 723 mmHg 82%
    18:00 +20°C° 1.3 mm 2 mps 723 mmHg 85%
    19:00 +20°C° 1.3 mm 1 mps 723 mmHg 87%
    20:00 +19°C° 0.5 mm 1 mps 723 mmHg 89%
    21:00 +18°C° 0.5 mm 1 mps 724 mmHg 90%
    22:00 +16°C° 0.5 mm 1 mps 724 mmHg 91%
    23:00 +15°C° 0 mm 1 mps 724 mmHg 91%

    9 Junio, Martes

    Tiempo Temperatura Precipitaciones Viento Presión Humedad
    00:00 +15°C° 0 mm 1 mps 724 mmHg 90%
    01:00 +13°C° 0 mm 0 mps 724 mmHg 90%
    02:00 +13°C° 0 mm 0 mps 724 mmHg 90%
    03:00 +12°C° 0 mm 0 mps 724 mmHg 90%
    04:00 +12°C° 0 mm 0 mps 723 mmHg 90%
    05:00 +13°C° 0 mm 0 mps 724 mmHg 87%
    06:00 +14°C° 0 mm 0 mps 724 mmHg 84%
    07:00 +16°C° 0 mm 1 mps 724 mmHg 82%
    08:00 +18°C° 0.1 mm 1 mps 725 mmHg 75%
    09:00 +20°C° 0.1 mm 1 mps 725 mmHg 69%
    10:00 +21°C° 0.1 mm 1 mps 725 mmHg 62%
    11:00 +22°C° 0.1 mm 1 mps 725 mmHg 61%
    12:00 +23°C° 0.1 mm 1 mps 725 mmHg 59%
    13:00 +23°C° 0.1 mm 1 mps 725 mmHg 57%
    14:00 +23°C° 0.6 mm 1 mps 725 mmHg 61%
    15:00 +22°C° 0.6 mm 1 mps 725 mmHg 65%
    16:00 +22°C° 0.6 mm 1 mps 725 mmHg 70%
    17:00 +21°C° 0.9 mm 1 mps 725 mmHg 74%
    18:00 +20°C° 0.9 mm 1 mps 725 mmHg 79%
    19:00 +19°C° 0.9 mm 1 mps 725 mmHg 84%
    20:00 +18°C° 0 mm 1 mps 725 mmHg 86%
    21:00 +16°C° 0 mm 1 mps 726 mmHg 88%
    22:00 +15°C° 0 mm 1 mps 726 mmHg 90%
    23:00 +14°C° 0 mm 1 mps 726 mmHg 91%

    10 Junio, Miércoles

    Tiempo Temperatura Precipitaciones Viento Presión Humedad
    00:00 +14°C° 0 mm 1 mps 726 mmHg 92%
    01:00 +13°C° 0 mm 1 mps 726 mmHg 93%
    02:00 +13°C° 0 mm 1 mps 725 mmHg 94%
    03:00 +13°C° 0 mm 1 mps 725 mmHg 94%
    04:00 +13°C° 0 mm 1 mps 725 mmHg 95%
    05:00 +14°C° 0 mm 1 mps 726 mmHg 93%
    06:00 +15°C° 0 mm 1 mps 726 mmHg 90%
    07:00 +16°C° 0 mm 1 mps 726 mmHg 88%
    08:00 +17°C° 0 mm 2 mps 726 mmHg 81%
    09:00 +19°C° 0 mm 2 mps 726 mmHg 74%
    10:00 +20°C° 0 mm 2 mps 726 mmHg 67%
    11:00 +21°C° 0.6 mm 3 mps 726 mmHg 67%
    12:00 +21°C° 0.6 mm 3 mps 726 mmHg 67%
    13:00 +22°C° 0.6 mm 3 mps 726 mmHg 68%
    14:00 +21°C° 1.3 mm 3 mps 726 mmHg 69%
    15:00 +21°C° 1.3 mm 3 mps 725 mmHg 71%
    16:00 +21°C° 1.3 mm 3 mps 725 mmHg 72%
    17:00 +20°C° 1.1 mm 2 mps 725 mmHg 77%
    18:00 +19°C° 1.1 mm 2 mps 725 mmHg 81%
    19:00 +17°C° 1.1 mm 2 mps 725 mmHg 85%
    20:00 +16°C° 0.1 mm 1 mps 725 mmHg 87%
    21:00 +15°C° 0.1 mm 1 mps 725 mmHg 89%
    22:00 +14°C° 0.1 mm 1 mps 725 mmHg 91%
    23:00 +14°C° 0 mm 1 mps 725 mmHg 91%

    11 Junio, Jueves

    Tiempo Temperatura Precipitaciones Viento Presión Humedad
    00:00 +14°C° 0 mm 1 mps 725 mmHg 92%
    01:00 +14°C° 0 mm 1 mps 724 mmHg 92%
    02:00 +13°C° 0 mm 1 mps 724 mmHg 93%
    03:00 +13°C° 0 mm 1 mps 724 mmHg 93%
    04:00 +13°C° 0 mm 1 mps 724 mmHg 93%
    05:00 +14°C° 0.1 mm 1 mps 724 mmHg 91%
    06:00 +15°C° 0.1 mm 1 mps 724 mmHg 89%
    07:00 +16°C° 0.1 mm 1 mps 724 mmHg 87%
    08:00 +17°C° 0.8 mm 2 mps 724 mmHg 82%
    09:00 +18°C° 0.8 mm 2 mps 724 mmHg 77%
    10:00 +19°C° 0.8 mm 2 mps 724 mmHg 72%
    11:00 +20°C° 1.2 mm 2 mps 724 mmHg 72%
    12:00 +20°C° 1.2 mm 2 mps 724 mmHg 71%
    13:00 +21°C° 1.2 mm 2 mps 724 mmHg 70%
    14:00 +21°C° 1.4 mm 2 mps 724 mmHg 71%
    15:00 +21°C° 1.4 mm 2 mps 723 mmHg 72%
    16:00 +20°C° 1.4 mm 2 mps 723 mmHg 73%
    17:00 +20°C° 0.6 mm 2 mps 723 mmHg 77%
    18:00 +20°C° 0.6 mm 1 mps 723 mmHg 81%
    19:00 +19°C° 0.6 mm 1 mps 723 mmHg 85%
    20:00 +18°C° 0 mm 1 mps 723 mmHg 88%
    21:00 +15°C° 0 mm 1 mps 724 mmHg 90%
    22:00 +14°C° 0 mm 1 mps 724 mmHg 93%
    23:00 +14°C° 0 mm 1 mps 724 mmHg 93%
    Mostrar más